Погода в Пинеге

Поиск расширенной информации на нашем сайте:

Полезная информация:

Новости сайта



02.01.2020
Опубликован Долгосрочный прогноз погоды по городам России и ближнего зарубежья на январь 2020 года.
Карты: Прогноз на январь и февраль 2020 года, Сравнение прогнозируемой аномалии приземной температуры воздуха на январь 2020 года по разным моделям.




Погода в Пинеге - сегодня

Время (UTC), дата Ветер
(°,м/с) 
Видим.   Явления Облачность Т
(°С)
Тd
(°С)
f(%) Тe
(°С)
Pmin
(гПа)
dP
(гПа)
Po
(мм)
O2
(г/м3)
Тmin Tmax R s Состояние
почвы
12 29.11.20 180 (Ю) 20000 м    9/3 2000 м средняя, верхняя 
[Ac lent|Ci fib]
-12.4 -13.6 91 -12  1039.1  -0.6  776  329           
15 29.11.20 180 (Ю) 10 км    10/10 420 м 
[Sc]
-10.5 -11.6 92 -14  1037.9  -1.1  776  326    -10.5       
18 29.11.20 180 (Ю) 10 км    10/10 300 м 
[St]
-8.4 -9.4 92 -10  1037.5  -0.4  775  323           
21 29.11.20 190 (Ю) 4000 м  слаб. снег  10/10 500 м 
[Ns]
-6.7 -7.7 93 -9  1036.9  -0.6  775  321           
00 30.11.20 190 (Ю) 10 км  {снег}  10/10 240 м 
[St]
-5.3 -6 95 -8  1035.7  -1.1  774  319           
03 30.11.20 180 (Ю) 10 км    10/10 240 м 
[St]
-4.8 -5.6 94 -6  1034.8  -0.9  773  318  -10.5    0.0  равномерный
сухой снег
100% 
06 30.11.20 180 (Ю) 4000 м  дымка  10/10 210 м 
[St]
-4.6 -5.2 96 -8  1033.7  -1.2  773  317           
09 30.11.20 190 (Ю) 4000 м  дымка  10/10 210 м 
[St]
-3.9 -4.7 94 -7  1033.2  -0.5  772  316           
12 30.11.20 190 (Ю) 10 км    10/10 210 м 
[St]
-3.4 -4.4 93 -6  1031.8  -1.4  771  315           
15 30.11.20 170 (Ю) 10 км    10/10 210 м 
[St]
-2.6 -3.7 92 -5  1030.1  -1.6  770  314    -2.6       
18 30.11.20 180 (Ю) 10 км    10/10 300 м 
[St]
-2.1 -3.3 91 -3  1028.5  -1.6  769  313           
21 30.11.20 180 (Ю) 10 км  слаб. снег  10/10 300 м 
[Frnb|Ns]
-1.7 -2.6 94 -3  1026.5  -2  767  311           
00 01.12.20 190 (Ю) 4000 м  слаб. снег  10/10 270 м 
[Frnb|Ns]
-0.7 -1.4 95 -3  1024.8  -1.6  766  310           
03 01.12.20 180 (Ю) 4000 м  слаб. снег{морось}  10/10 270 м 
[Frnb|Ns]
-0.3 -0.9 96 -3  1023.5  -1.3  765  309  -2.6    0.4  равномерный
сухой снег
100% 
06 01.12.20 190 (Ю) 4000 м  слаб. снег{морось}  10/10 360 м 
[Frnb|Ns]
+0 -0.9 94 -3  1023  -0.5  765  308           
09 01.12.20 190 (Ю) 4000 м  слаб. снег  10/10 330 м 
[Frnb|Ns]
-0.2 -0.7 96 -2  1023  0.1  765  308           
12 01.12.20 280 (З) 10 км  {ливн. осадки}  ясно 
+0.6 -5.2 65 1022.1  2.6  764  308           
15 01.12.20 190 (Ю) 4000 м  снег [диам. гололёда 0 мм]  10/10 360 м 
[Frnb|Ns]
-1.2 -1.9 95 -3  1022  -0.4  764  309    +0     
21 01.12.20 200 (Ю) 4000 м  слаб. снег  10/10 300 м 
[Frnb|Ns]
-0.8 -2.1 91 -3  1023.1  0.5  765  309           
00 02.12.20 190 (Ю) 4000 м  слаб. снег  10/10 300 м 
[Frnb|Ns]
-1 -2.2 92 -4  1022.5  -0.6  764  309           
03 02.12.20 190 (Ю) 4000 м  снег [диам. гололёда 0 мм]  10/10 210 м 
[Frnb|Ns]
-1 -1.5 96 -3  1022  -0.5  764  309  -1.4    14  равномерный
сухой снег
100% 
06 02.12.20 200 (Ю) 4000 м  слаб. снег  10/10 330 м 
[Frnb|Ns]
-0.4 -0.9 96 -1  1022.9  0.9  764  309           
09 02.12.20 250 (З) 20000 м  {снег}  10/10 450 м 
[Sc]
+0.6 -0.3 94 -1  1024.9  766  308           
12 02.12.20 240 (ЮЗ) 10 км  {снег}  10/10 420 м 
[Sc]
+0.4 -0.9 91 -1  1026.4  1.5  767  309           
15 02.12.20 220 (ЮЗ) 10 км  {ливн. осадки}  10/4 300 м кучево-дожд., средняя 
[Cb cap|Ac und]
+0.4 -0.8 92 -1  1027.4  768  309    +0.7  0.5     
Время (UTC), дата Ветер
(°,м/с) 
Видим.   Явления Облачность Т
(°С)
Тd
(°С)
f(%) Тe
(°С)
Pmin
(гПа)
dP
(гПа)
Po
(мм)
O2
(г/м3)
Тmin Tmax R s Состояние
почвы

Для получения пояснительной информации подведите курсор к названию столбца.

ПОГОДА в Пинеге - архив

Всё, что Вы хотите узнать о погоде в Пинеге - удобно и подробно!

Выберите нужную дату (начиная с 1 января 2019* года) и нажмите кнопку "Найти".
Будут отображены архивные сводки погоды по пункту Пинега, начиная с указанной даты.


Отображать данные в формате CSV (для использования в таблицах Excel)


Внимание! Наш архив погоды предназначен исключительно для личного некоммерческого использования в познавательных целях. Если Вам необходимы официальные справки о состоянии погоды (для производственных, юридических, коммерческих и т.п. целей), обращайтесь в органы Росгидромета.

*Примечание: данная дата относится к архиву по метеостанциям СССР (Россия, СНГ, Балтия).
Архив по метеостанциям Зарубежной Европы и Азии (кроме Китая) хранится 10 дней, по другим регионам земного шара (Китай, Африка, Америка, Австралия, Океания) - 1 день.

Пинега - район местоположения метеостанции


Название, широта, долгота, высота метеостанции:
Пинега 64.7°ш. 43.4°д. 31 м над ур. моря [Российская Федерация]

Дополнительная информация

В oтличие oт бoльшинства пoгoдных сайтoв мы публикуем пoдрoбную метеoинфoрмацию в детальнoм прoфессиoнальнoм фoрмате.

Характеристики температуры и влажнoсти вoздуха измеряются на высoте 2 м в тени вдали oт зданий и деревьев.
Скoрoсть ветра измеряется на высoте 10 м (на урoвне рoста челoвека скoрoсть ветра ниже в 1.5-2 раза). Если метеoстанция нахoдится в гoрoде или в лесу, тo скoрoсть ветра занижена на 2-4 м/с пo сравнению с oткрытым местoм. Скoрoсть ветра над акватoриями крупных рек и oзёр, а также на вершинах хoлмoв на 2-5 м/с выше, чем в oбычных услoвиях.
Атмoсфернoе давление в разных тoчках местнoсти мoжет значительнo oтличаться oт давления на метеoстанции, в зависимoсти oт услoвий рельефа (при пoдъёме на 10 м давление пoнижается примернo на 1 мм рт.ст.).